Mexico City Airport, Mexico

8:05 AM CDT on June 28, 2017 (GMT -0500)
Lic Benito Juarez International

Weather History for MMMX - January, 2013

Change the Weather History Date:

Friday, January 18, 2013

  Actual Average Record
Temperature  
Mean Temperature 50 °F -  
Max Temperature 66 °F 70 °F 78 °F (2002)
Min Temperature 35 °F 42 °F 32 °F (2006)
Degree Days  
Heating Degree Days 14    
Moisture  
Dew Point 25 °F    
Average Humidity 41    
Maximum Humidity 65    
Minimum Humidity 24    
Precipitation  
Precipitation 0.00 in - - ()
Sea Level Pressure  
Sea Level Pressure 30.35 in    
Wind  
Wind Speed 5 mph ()    
Max Wind Speed 15 mph    
Max Gust Speed -    
Visibility 8.1 miles    
Events      
Averages and records for this station are not official NWS values.
T = Trace of Precipitation, MM = Missing Value Source: Averaged Metar Reports

Daily Weather History Graph

Daily Weather History Graph

Search for Another Location

Airport or City:

Trip Planner

Search our weather history database for the weather conditions in past years. The results will help you decide how hot, cold, wet, or windy it might be!

Date:

Astronomy

Jan. 18, 2013 Rise Set
Actual Time 7:13 AM CST 6:20 PM CST
Civil Twilight 6:49 AM CST 6:44 PM CST
Nautical Twilight 6:23 AM CST 7:11 PM CST
Astronomical Twilight 5:56 AM CST 7:37 PM CST
Moon 11:59 AM CST (1/18) 12:09 AM CST (1/18)
Length of Visible Light 11h 54m
Length of Day
11h 07m
Waxing Crescent, 47% of the Moon is Illuminated
Jan 18
Waxing Crescent
Jan 18
First Quarter
Jan 26
Full
Feb 3
Last Quarter
Feb 10
New

Hourly Weather History & Observations

Time (CST) Temp. Windchill Dew Point Humidity Pressure Visibility Wind Dir Wind Speed Gust Speed Precip Events Conditions
12:55 AM 42.8 °F 39.3 °F 26.6 °F 53% 30.48 in 12.0 mi WNW 5.8 mph - N/A   Overcast
1:56 AM 41.0 °F 39.0 °F 26.6 °F 57% 30.45 in 12.0 mi ENE 3.5 mph - N/A   Overcast
2:53 AM 39.2 °F 37.0 °F 26.6 °F 61% 30.17 in 12.0 mi ENE 3.5 mph - N/A   Overcast
3:51 AM 39.2 °F 35.0 °F 26.6 °F 61% 30.45 in 12.0 mi East 5.8 mph - N/A   Overcast
4:45 AM 37.4 °F 32.1 °F 26.6 °F 65% 30.45 in 12.0 mi ENE 6.9 mph - N/A   Mostly Cloudy
5:47 AM 37.4 °F 33.8 °F 24.8 °F 60% 30.19 in 12.0 mi East 4.6 mph - N/A   Mostly Cloudy
6:26 AM 37.4 °F 33.8 °F 23.0 °F 56% 30.45 in 10.0 mi NE 4.6 mph - N/A   Mostly Cloudy
6:51 AM 35.6 °F 31.7 °F 23.0 °F 60% 30.45 in 10.0 mi ENE 4.6 mph - N/A   Overcast
7:25 AM 35.6 °F 30.7 °F 23.0 °F 60% 30.47 in 8.0 mi East 5.8 mph - N/A   Scattered Clouds
7:47 AM 37.4 °F 32.8 °F 23.0 °F 56% 30.48 in 8.0 mi ENE 5.8 mph - N/A   Scattered Clouds
8:21 AM 39.2 °F 35.0 °F 23.0 °F 52% 30.49 in 8.0 mi ENE 5.8 mph - N/A   Scattered Clouds
8:46 AM 41.0 °F 37.1 °F 21.2 °F 45% 30.29 in 8.0 mi NE 5.8 mph - N/A   Scattered Clouds
9:22 AM 44.6 °F - 23.0 °F 43% 30.49 in 7.0 mi East 2.3 mph - N/A   Scattered Clouds
9:23 AM 44.6 °F - 23.0 °F 43% 30.49 in 7.0 mi East 2.3 mph - N/A   Scattered Clouds
10:01 AM 46.4 °F 41.9 °F 23.0 °F 40% 30.49 in 7.0 mi NE 9.2 mph - N/A   Scattered Clouds
10:42 AM 50.0 °F - 24.8 °F 37% 30.47 in 7.0 mi Calm Calm - N/A   Partly Cloudy
10:46 AM 50.0 °F - 23.0 °F 35% 30.47 in 7.0 mi ENE 4.6 mph - N/A   Partly Cloudy
11:30 AM 53.6 °F - 24.8 °F 33% 30.45 in 7.0 mi NE 8.1 mph - N/A   Scattered Clouds
11:51 AM 53.6 °F - 24.8 °F 33% 30.16 in 7.0 mi North 3.5 mph - N/A   Scattered Clouds
12:44 PM 57.2 °F - 26.6 °F 31% 30.39 in 7.0 mi NE 5.8 mph - N/A   Mostly Cloudy
12:48 PM 57.2 °F - 26.6 °F 31% 30.38 in 7.0 mi East 3.5 mph - N/A   Mostly Cloudy
1:37 PM 60.8 °F - 28.4 °F 29% 30.34 in 6.0 mi Calm Calm - N/A   Mostly Cloudy
1:48 PM 60.8 °F - 26.6 °F 27% 30.34 in 6.0 mi ENE 3.5 mph - N/A   Mostly Cloudy
2:44 PM 62.6 °F - 26.6 °F 26% 30.01 in 6.0 mi South 3.5 mph - N/A   Mostly Cloudy
3:40 PM 66.2 °F - 28.4 °F 24% 30.29 in 5.0 mi SSE 3.5 mph - N/A   Scattered Clouds
3:46 PM 66.2 °F - 28.4 °F 24% 30.29 in 5.0 mi South 4.6 mph - N/A   Scattered Clouds
4:45 PM 64.4 °F - 28.4 °F 26% 30.30 in 5.0 mi NE 5.8 mph - N/A   Mostly Cloudy
5:46 PM 62.6 °F - 28.4 °F 27% 30.00 in 5.0 mi ENE 6.9 mph - N/A   Mostly Cloudy
6:46 PM 60.8 °F - 26.6 °F 27% 30.33 in 5.0 mi NNE 10.4 mph - N/A   Mostly Cloudy
7:31 PM 57.2 °F - 24.8 °F 29% 30.36 in 6.0 mi NE 13.8 mph - N/A   Mostly Cloudy
7:45 PM 57.2 °F - 24.8 °F 29% 30.37 in 6.0 mi NNE 11.5 mph - N/A   Mostly Cloudy
8:34 PM 53.6 °F - 24.8 °F 33% 30.40 in 8.0 mi NE 12.7 mph - N/A   Scattered Clouds
8:47 PM 53.6 °F - 24.8 °F 33% 30.13 in 8.0 mi NNE 15.0 mph - N/A   Scattered Clouds
9:49 PM 53.6 °F - 24.8 °F 33% 30.41 in 10.0 mi NE 5.8 mph - N/A   Mostly Cloudy
10:51 PM 50.0 °F - 28.4 °F 43% 30.42 in 12.0 mi ESE 4.6 mph - N/A   Mostly Cloudy
11:55 PM 48.2 °F - 28.4 °F 46% 30.02 in 12.0 mi East 3.5 mph - N/A   Scattered Clouds